KB1DML Weather Reports


Display with metric or nautical units.
time (UTC)temp
F
wind
direction
speed
MPH
gust
MPH
rain 1hr
in
rain 24hr
in
rain mn
in
humidity
%
barometer
mb
20260507165516 65 0 2.0 8.0 0.00 0.23 0.16 39 1004.9
20260507165015 65 0 3.0 11.0 0.00 0.23 0.16 39 1004.9
20260507164516 64 0 3.0 13.0 0.00 0.23 0.16 43 1004.9
20260507164037 64 0 2.0 9.0 0.00 0.23 0.16 42 1005.0
20260507163516 64 0 2.0 8.0 0.00 0.23 0.16 44 1005.1
20260507163016 64 0 2.0 5.0 0.00 0.23 0.16 44 1005.1
20260507162515 64 0 3.0 13.0 0.00 0.23 0.16 45 1005.1
20260507162016 64 0 3.0 13.0 0.00 0.23 0.16 44 1005.2
20260507161536 64 0 1.0 4.0 0.00 0.23 0.16 44 1005.2
20260507161038 64 0 3.0 10.0 0.00 0.23 0.16 44 1005.3
20260507160515 64 0 2.0 4.0 0.00 0.23 0.16 46 1005.4
20260507160015 64 0 2.0 4.0 0.00 0.23 0.16 47 1005.4
20260507155515 63 0 3.0 8.0 0.00 0.23 0.16 48 1005.4
20260507155015 63 0 1.0 9.0 0.00 0.23 0.16 49 1005.4
20260507154515 63 0 2.0 6.0 0.00 0.23 0.16 49 1005.5
20260507154015 63 225 2.0 8.0 0.00 0.23 0.16 48 1005.6
20260507153536 63 0 3.0 11.0 0.00 0.23 0.16 49 1005.6
20260507153015 63 0 4.0 10.0 0.00 0.23 0.16 49 1005.7
20260507152558 63 0 1.0 5.0 0.00 0.23 0.16 49 1005.7
20260507152015 63 0 2.0 6.0 0.00 0.23 0.16 50 1005.8
20260507151515 63 0 1.0 4.0 0.00 0.23 0.16 50 1005.8
20260507151035 62 225 1.0 7.0 0.00 0.23 0.16 50 1005.8
20260507150516 62 270 2.0 6.0 0.00 0.23 0.16 52 1005.9
20260507150036 62 225 2.0 7.0 0.00 0.23 0.16 52 1005.9
20260507145535 61 270 2.0 8.0 0.00 0.23 0.16 52 1006.0
20260507145037 61 0 4.0 11.0 0.00 0.23 0.16 52 1006.0
20260507144518 62 0 1.0 8.0 0.00 0.23 0.16 52 1006.1
20260507144035 62 0 1.0 4.0 0.00 0.23 0.16 52 1006.2
20260507143515 62 0 1.0 5.0 0.00 0.23 0.16 50 1006.3
20260507143055 62 0 2.0 8.0 0.00 0.23 0.16 50 1006.2
20260507142515 61 0 1.0 4.0 0.00 0.23 0.16 50 1006.2
20260507142016 61 0 1.0 4.0 0.00 0.23 0.16 51 1006.2
20260507141535 60 0 2.0 8.0 0.00 0.23 0.16 52 1006.3
20260507141037 60 0 3.0 10.0 0.00 0.23 0.16 53 1006.3
20260507140515 60 0 2.0 7.0 0.00 0.23 0.16 55 1006.2
20260507140015 59 225 2.0 5.0 0.00 0.23 0.16 55 1006.3
20260507135535 58 293 2.0 7.0 0.00 0.23 0.16 58 1006.2
20260507135015 58 315 2.0 7.0 0.00 0.23 0.16 59 1006.3
20260507134515 58 315 4.0 10.0 0.00 0.23 0.16 61 1006.3
20260507134016 57 315 3.0 11.0 0.00 0.23 0.16 62 1006.3
20260507133515 57 270 2.0 8.0 0.00 0.23 0.16 65 1006.3
20260507133015 57 293 3.0 11.0 0.00 0.23 0.16 68 1006.4
20260507132515 56 293 2.0 8.0 0.00 0.23 0.16 72 1006.3
20260507132015 56 225 2.0 5.0 0.00 0.23 0.16 71 1006.4
20260507131516 55 225 2.0 6.0 0.00 0.23 0.16 72 1006.5
20260507131035 55 293 1.0 4.0 0.00 0.23 0.16 77 1006.5
20260507130515 54 270 2.0 8.0 0.00 0.23 0.16 78 1006.5
20260507130035 54 225 1.0 4.0 0.00 0.23 0.16 81 1006.5
20260507125515 53 270 3.0 9.0 0.00 0.23 0.16 82 1006.6
20260507125015 53 270 1.0 5.0 0.00 0.23 0.16 84 1006.7
20260507124515 52 315 2.0 5.0 0.00 0.23 0.16 85 1006.8
20260507124035 52 293 2.0 10.0 0.00 0.23 0.16 87 1006.7
20260507123535 51 293 2.0 7.0 0.00 0.23 0.16 87 1006.8
20260507123015 51 270 1.0 5.0 0.00 0.23 0.16 88 1006.8
20260507122536 51 270 2.0 4.0 0.00 0.23 0.16 88 1006.7
20260507122015 51 293 2.0 9.0 0.00 0.23 0.16 88 1006.6
20260507121535 51 270 1.0 7.0 0.00 0.23 0.16 89 1006.5
20260507121015 51 270 1.0 3.0 0.00 0.23 0.16 89 1006.7
20260507120515 50 315 1.0 3.0 0.00 0.23 0.16 88 1006.5
20260507120015 50 270 1.0 4.0 0.00 0.23 0.16 88 1006.5
20260507115536 50 225 1.0 3.0 0.00 0.23 0.16 88 1006.5
20260507115017 50 225 1.0 5.0 0.00 0.23 0.16 88 1006.6
20260507114515 50 270 1.0 4.0 0.00 0.23 0.16 88 1006.5
20260507114015 50 225 1.0 3.0 0.00 0.23 0.16 88 1006.6
20260507113536 50 225 1.0 3.0 0.00 0.23 0.16 88 1006.6
20260507113015 50 225 1.0 2.0 0.00 0.23 0.16 88 1006.4
20260507112515 50 270 1.0 2.0 0.00 0.23 0.16 88 1006.3
20260507112035 50 225 1.0 4.0 0.00 0.23 0.16 88 1006.3
20260507111535 50 225 1.0 5.0 0.00 0.23 0.16 88 1006.4
20260507111055 50 225 1.0 3.0 0.00 0.23 0.16 88 1006.4
20260507110535 50 225 1.0 4.0 0.01 0.23 0.16 88 1006.3
20260507110036 50 225 1.0 2.0 0.01 0.23 0.16 88 1006.1
20260507105515 50 293 1.0 4.0 0.01 0.23 0.16 88 1006.2
20260507105015 50 315 1.0 3.0 0.01 0.23 0.16 88 1006.2
20260507104556 50 0.0 2.0 0.02 0.23 0.16 88 1006.4
20260507104016 50 0.0 1.0 0.03 0.23 0.16 88 1006.5
20260507103515 50 225 1.0 1.0 0.04 0.23 0.16 88 1006.5
20260507103015 50 225 1.0 2.0 0.05 0.23 0.16 88 1006.6
20260507102515 50 225 1.0 2.0 0.05 0.23 0.16 88 1006.4
20260507102015 50 0.0 2.0 0.06 0.23 0.16 88 1005.9
20260507101556 50 0.0 2.0 0.06 0.23 0.16 87 1006.0
20260507101015 51 0.0 2.0 0.08 0.23 0.16 87 1006.2
20260507100515 51 225 1.0 3.0 0.08 0.22 0.15 87 1006.3
20260507100036 51 0.0 2.0 0.08 0.22 0.15 87 1005.9
20260507095515 51 0.0 2.0 0.09 0.22 0.15 87 1005.8
20260507095015 51 0.0 2.0 0.10 0.22 0.15 87 1005.7
20260507094515 51 293 1.0 5.0 0.10 0.21 0.14 87 1005.8
20260507094015 51 270 1.0 3.0 0.10 0.20 0.13 87 1005.8
20260507093515 51 225 1.0 4.0 0.09 0.19 0.12 86 1006.0
20260507093015 51 270 1.0 6.0 0.08 0.18 0.11 86 1005.7
20260507092515 52 0 2.0 5.0 0.08 0.18 0.11 86 1005.5
20260507092015 52 0 2.0 7.0 0.08 0.17 0.10 86 1005.5
20260507091515 52 0 1.0 8.0 0.08 0.17 0.10 85 1005.5
20260507091055 52 270 1.0 10.0 0.07 0.15 0.08 85 1005.8
20260507090515 52 315 1.0 4.0 0.06 0.14 0.07 85 1005.9
20260507090015 52 270 1.0 5.0 0.06 0.14 0.07 85 1006.0
20260507085515 53 225 1.0 6.0 0.06 0.13 0.06 84 1005.9
20260507085015 53 225 1.0 3.0 0.05 0.12 0.05 84 1005.9
20260507084517 53 225 1.0 3.0 0.04 0.11 0.04 84 1005.9
20260507084017 53 225 1.0 3.0 0.03 0.10 0.03 83 1005.9
20260507083517 54 270 1.0 4.0 0.03 0.10 0.03 83 1005.6
20260507083017 54 270 1.0 4.0 0.03 0.10 0.03 83 1005.4
20260507082517 54 270 1.0 3.0 0.03 0.10 0.03 82 1005.5
20260507082037 54 225 1.0 4.0 0.02 0.09 0.02 82 1005.4
20260507081517 54 225 1.0 3.0 0.02 0.09 0.02 82 1005.3
20260507081017 55 315 2.0 10.0 0.01 0.08 0.01 82 1005.5
20260507080517 55 270 2.0 8.0 0.01 0.08 0.01 82 1005.9
20260507080017 56 225 1.0 5.0 0.01 0.08 0.01 83 1005.7
20260507075537 56 225 1.0 3.0 0.00 0.07 0.00 83 1005.3
20260507075017 56 270 1.0 5.0 0.00 0.07 0.00 82 1005.1
20260507074517 56 225 1.0 9.0 0.00 0.07 0.00 82 1005.3
20260507074017 56 225 2.0 5.0 0.00 0.07 0.00 82 1005.4
20260507073517 56 270 2.0 7.0 0.00 0.07 0.00 82 1005.2
20260507073017 57 293 2.0 9.0 0.00 0.07 0.00 82 1005.0
20260507072518 57 248 2.0 7.0 0.00 0.07 0.00 82 1004.7
20260507072018 57 225 1.0 4.0 0.00 0.07 0.00 82 1004.5
20260507071517 57 293 2.0 8.0 0.00 0.07 0.00 82 1004.5
20260507071017 57 248 1.0 4.0 0.00 0.07 0.00 82 1004.5
20260507070516 57 293 1.0 5.0 0.00 0.07 0.00 82 1004.6
20260507070016 57 0 2.0 8.0 0.00 0.07 0.00 82 1004.4
20260507065516 58 293 1.0 5.0 0.00 0.07 0.00 82 1004.4
20260507065017 58 270 1.0 4.0 0.00 0.07 0.00 82 1004.5
20260507064517 58 270 1.0 6.0 0.00 0.07 0.00 82 1004.6
20260507064016 58 270 2.0 9.0 0.00 0.07 0.00 81 1004.7
20260507063517 58 0 3.0 11.0 0.00 0.07 0.00 81 1004.7
20260507063017 58 0 2.0 8.0 0.00 0.07 0.00 81 1004.8
20260507062516 58 248 2.0 5.0 0.00 0.07 0.00 82 1004.6
20260507062037 59 293 2.0 5.0 0.00 0.07 0.00 83 1004.5
20260507061516 59 270 1.0 5.0 0.00 0.07 0.00 83 1004.4
20260507061016 59 293 2.0 6.0 0.00 0.07 0.00 83 1004.4
20260507060517 59 270 1.0 4.0 0.00 0.07 0.00 83 1004.5
20260507060017 59 0 2.0 8.0 0.00 0.07 0.00 83 1004.7
20260507055517 59 0 1.0 5.0 0.00 0.07 0.00 83 1004.6
20260507055016 59 0 1.0 3.0 0.00 0.07 0.00 83 1004.8
20260507054516 59 0 1.0 7.0 0.00 0.07 0.00 83 1004.8
20260507054016 59 225 1.0 4.0 0.00 0.07 0.00 84 1005.2
20260507053537 60 225 1.0 3.0 0.00 0.07 0.00 85 1005.0
20260507053017 60 225 1.0 4.0 0.00 0.07 0.00 85 1004.9
20260507052517 60 225 1.0 4.0 0.00 0.07 0.00 85 1004.9
20260507052017 60 225 1.0 4.0 0.00 0.07 0.00 85 1004.7
20260507051517 60 225 2.0 4.0 0.00 0.07 0.00 86 1004.5
20260507051016 60 270 2.0 8.0 0.00 0.07 0.00 86 1004.6
20260507050516 60 225 2.0 12.0 0.00 0.07 0.00 87 1004.7
20260507050016 60 225 2.0 10.0 0.00 0.07 0.00 88 1004.7
20260507045516 60 270 2.0 5.0 0.00 0.07 0.00 89 1004.8
20260507045017 60 225 1.0 4.0 0.00 0.07 0.00 89 1004.7
20260507044516 61 225 1.0 5.0 0.00 0.07 0.00 90 1004.6
20260507044036 61 225 1.0 5.0 0.00 0.07 0.00 90 1004.6
20260507043516 61 225 2.0 7.0 0.00 0.07 0.00 90 1004.5
20260507043019 61 225 1.0 4.0 0.00 0.07 0.00 90 1004.5
20260507042516 61 225 1.0 3.0 0.00 0.07 0.00 90 1004.4
20260507042018 61 225 1.0 2.0 0.00 0.07 0.00 90 1004.4
20260507041516 61 225 1.0 2.0 0.00 0.07 0.00 90 1004.5
20260507041017 61 225 1.0 4.0 0.00 0.07 0.00 90 1004.6
20260507040516 61 225 1.0 2.0 0.00 0.07 0.00 90 1004.8
20260507040016 61 225 1.0 4.0 0.00 0.07 0.07 90 1004.9
20260507035515 61 225 1.0 4.0 0.00 0.07 0.07 90 1004.8
20260507035014 61 180 1.0 7.0 0.00 0.07 0.07 90 1004.7
20260507034538 60 180 1.0 7.0 0.00 0.07 0.07 90 1004.7
20260507034037 60 225 1.0 5.0 0.00 0.07 0.07 90 1004.6
20260507033516 60 180 1.0 5.0 0.00 0.07 0.07 90 1004.5
20260507033019 60 180 2.0 7.0 0.00 0.07 0.07 90 1004.5
20260507032516 60 180 2.0 8.0 0.00 0.07 0.07 90 1004.4
20260507032017 60 225 2.0 8.0 0.00 0.07 0.07 90 1004.4
20260507031516 60 180 2.0 4.0 0.00 0.07 0.07 90 1004.3
20260507031017 60 180 2.0 8.0 0.00 0.07 0.07 90 1004.3
20260507030517 60 203 1.0 4.0 0.00 0.07 0.07 91 1004.1
20260507030017 60 225 1.0 5.0 0.00 0.07 0.07 91 1004.1
20260507025516 60 158 1.0 5.0 0.00 0.07 0.07 90 1004.1
20260507025017 60 158 2.0 5.0 0.00 0.07 0.07 90 1004.1
20260507024517 60 225 1.0 5.0 0.00 0.07 0.07 90 1004.2
20260507024037 60 203 2.0 7.0 0.00 0.07 0.07 90 1004.4
20260507023516 60 203 1.0 5.0 0.00 0.07 0.07 90 1004.4
20260507023017 60 203 1.0 4.0 0.00 0.07 0.07 90 1004.3
20260507022516 60 225 1.0 4.0 0.00 0.07 0.07 90 1004.3
20260507022016 60 225 1.0 5.0 0.00 0.07 0.07 90 1004.2
20260507021518 60 225 2.0 6.0 0.00 0.07 0.07 90 1004.2
20260507021036 60 180 2.0 6.0 0.00 0.07 0.07 90 1004.3
20260507020537 60 225 2.0 6.0 0.00 0.07 0.07 90 1004.4
20260507020018 59 203 2.0 9.0 0.00 0.07 0.07 90 1004.3
20260507015557 59 203 2.0 6.0 0.00 0.07 0.07 90 1004.3
20260507015016 59 158 2.0 11.0 0.00 0.07 0.07 90 1004.3
20260507014516 59 135 3.0 8.0 0.00 0.07 0.07 90 1004.3
20260507014036 59 158 3.0 8.0 0.00 0.07 0.07 90 1004.4
20260507013536 59 158 2.0 12.0 0.00 0.07 0.07 90 1004.5
20260507013016 59 203 2.0 11.0 0.00 0.07 0.07 90 1004.5
20260507012516 59 158 2.0 8.0 0.00 0.07 0.07 90 1004.5
20260507012016 59 225 1.0 8.0 0.00 0.07 0.07 90 1004.6
20260507011516 59 225 2.0 7.0 0.00 0.07 0.07 90 1004.6
20260507011039 59 225 2.0 8.0 0.00 0.07 0.07 90 1004.7
20260507010517 59 203 2.0 5.0 0.00 0.07 0.07 90 1004.8
20260507010016 59 135 3.0 11.0 0.00 0.07 0.07 90 1004.8
20260507005516 59 180 3.0 11.0 0.01 0.07 0.07 90 1004.8
20260507005016 59 203 3.0 8.0 0.01 0.07 0.07 90 1004.8
20260507004516 59 225 2.0 7.0 0.02 0.07 0.07 90 1004.8
20260507004017 59 180 3.0 8.0 0.02 0.07 0.07 90 1004.8
20260507003516 59 158 3.0 11.0 0.02 0.07 0.07 90 1004.7
20260507003016 59 135 3.0 13.0 0.02 0.07 0.07 89 1004.7
20260507002536 59 135 3.0 11.0 0.02 0.07 0.07 89 1004.7
20260507002016 59 158 4.0 13.0 0.02 0.07 0.07 89 1004.6
20260507001557 59 158 3.0 12.0 0.02 0.07 0.07 89 1004.6
20260507001017 59 180 3.0 9.0 0.02 0.07 0.07 89 1004.5
20260507000516 59 135 4.0 15.0 0.03 0.07 0.07 89 1004.4
20260507000016 59 158 2.0 7.0 0.03 0.07 0.07 89 1004.4
20260506235516 59 158 3.0 11.0 0.02 0.06 0.06 89 1004.4
20260506235016 59 158 3.0 10.0 0.02 0.06 0.06 89 1004.5
20260506234517 59 158 3.0 10.0 0.01 0.05 0.05 89 1004.4
20260506234036 60 0 6.0 14.0 0.01 0.05 0.05 89 1004.4
20260506233536 60 0 4.0 11.0 0.01 0.05 0.05 89 1004.4
20260506233016 60 0 5.0 12.0 0.01 0.05 0.05 89 1004.3
20260506232536 60 0 4.0 11.0 0.01 0.05 0.05 89 1004.2
20260506232037 60 0 5.0 15.0 0.01 0.05 0.05 89 1004.3
20260506231536 60 0 5.0 19.0 0.01 0.05 0.05 89 1004.3
20260506231017 60 0 5.0 14.0 0.01 0.05 0.05 88 1004.3
20260506230537 60 0 6.0 13.0 0.00 0.04 0.04 89 1004.3
20260506230016 60 0 6.0 13.0 0.00 0.04 0.04 88 1004.3
20260506225518 60 0 4.0 14.0 0.01 0.04 0.04 88 1004.3
20260506225016 60 0 4.0 14.0 0.01 0.04 0.04 88 1004.3
20260506224516 61 0 6.0 14.0 0.01 0.04 0.04 88 1004.4
20260506224017 61 0 5.0 12.0 0.01 0.04 0.04 88 1004.5
20260506223516 61 0 5.0 16.0 0.02 0.04 0.04 88 1004.6
20260506223016 61 0 5.0 12.0 0.02 0.04 0.04 88 1004.6
20260506222516 61 0 5.0 15.0 0.02 0.04 0.04 87 1004.8
20260506222016 61 0 7.0 17.0 0.02 0.04 0.04 87 1004.8
20260506221517 62 0 6.0 14.0 0.02 0.04 0.04 87 1004.7
20260506221016 62 0 7.0 14.0 0.02 0.04 0.04 87 1005.0
20260506220516 62 0 4.0 12.0 0.02 0.04 0.04 86 1004.9
20260506220036 62 0 5.0 12.0 0.02 0.04 0.04 86 1004.9
20260506215537 63 158 5.0 11.0 0.01 0.03 0.03 86 1005.0
20260506215016 63 135 3.0 12.0 0.01 0.03 0.03 85 1005.0
20260506214516 63 158 4.0 18.0 0.02 0.03 0.03 85 1005.1
20260506214016 63 158 4.0 18.0 0.02 0.03 0.03 85 1005.1
20260506213516 63 158 3.0 12.0 0.01 0.02 0.02 84 1005.2
20260506213037 63 158 4.0 16.0 0.01 0.02 0.02 84 1005.2
20260506212516 63 158 5.0 14.0 0.01 0.02 0.02 83 1005.1
20260506212018 63 158 5.0 12.0 0.01 0.02 0.02 83 1005.1
20260506211516 63 158 4.0 12.0 0.01 0.02 0.02 83 1005.1
20260506211017 64 203 4.0 13.0 0.01 0.02 0.02 82 1005.2
20260506210516 63 0 5.0 15.0 0.01 0.02 0.02 82 1005.3
20260506210016 64 0 3.0 13.0 0.01 0.02 0.02 82 1005.4
20260506205536 64 0 4.0 15.0 0.01 0.02 0.02 81 1005.3
20260506205016 64 0 5.0 12.0 0.01 0.02 0.02 81 1005.4
20260506204517 64 0 5.0 13.0 0.01 0.01 0.01 80 1005.5
20260506204016 64 0 5.0 18.0 0.01 0.01 0.01 79 1005.5
20260506203516 64 0 5.0 18.0 0.01 0.01 0.01 79 1005.5
20260506203036 64 0 5.0 17.0 0.01 0.01 0.01 78 1005.3
20260506202516 64 0 5.0 14.0 0.01 0.01 0.01 78 1005.4
20260506202016 65 0 7.0 22.0 0.01 0.01 0.01 77 1005.3
20260506201516 65 0 8.0 16.0 0.01 0.01 0.01 76 1005.2
20260506201036 65 0 5.0 17.0 0.01 0.01 0.01 76 1005.2
20260506200537 65 0 7.0 19.0 0.01 0.01 0.01 75 1005.1
20260506200016 66 0 6.0 15.0 0.01 0.01 0.01 74 1005.2
20260506195536 66 0 4.0 14.0 0.01 0.01 0.01 73 1005.2
20260506195017 67 0 4.0 11.0 0.01 0.01 0.01 72 1005.4
20260506194536 67 0 6.0 15.0 0.00 0.00 0.00 71 1005.5
20260506194016 67 0 6.0 15.0 0.00 0.00 0.00 70 1005.6
20260506193516 68 0 4.0 13.0 0.00 0.00 0.00 69 1005.7
20260506193016 68 0 4.0 13.0 0.00 0.00 0.00 68 1005.7
20260506192516 68 0 7.0 18.0 0.00 0.00 0.00 67 1005.7
20260506192036 69 0 5.0 16.0 0.00 0.00 0.00 67 1005.6
20260506191518 69 135 5.0 19.0 0.00 0.00 0.00 65 1005.5
20260506191016 70 158 5.0 14.0 0.00 0.00 0.00 63 1005.5
20260506190516 70 0 4.0 13.0 0.00 0.00 0.00 62 1005.4
20260506190016 70 0 4.0 10.0 0.00 0.00 0.00 61 1005.4
20260506185516 70 0 7.0 15.0 0.00 0.00 0.00 60 1005.5
20260506185019 71 0 4.0 14.0 0.00 0.00 0.00 60 1005.6
20260506184516 71 0 5.0 14.0 0.00 0.00 0.00 59 1005.6
20260506184016 71 0 6.0 20.0 0.00 0.00 0.00 59 1005.6
20260506183516 71 180 6.0 16.0 0.00 0.00 0.00 59 1005.6
20260506183016 71 158 5.0 18.0 0.00 0.00 0.00 58 1005.6
20260506182536 72 158 6.0 23.0 0.00 0.00 0.00 58 1005.6
20260506182016 72 0 6.0 17.0 0.00 0.00 0.00 57 1005.7
20260506181515 72 0 7.0 17.0 0.00 0.00 0.00 57 1005.7
20260506181037 72 0 6.0 16.0 0.00 0.00 0.00 56 1005.7
20260506180516 72 0 5.0 18.0 0.00 0.00 0.00 56 1005.7
20260506180015 73 0 4.0 14.0 0.00 0.00 0.00 57 1005.9
20260506175516 73 0 9.0 21.0 0.00 0.00 0.00 57 1005.9
20260506175016 73 0 7.0 17.0 0.00 0.00 0.00 57 1005.9
20260506174516 72 0 6.0 17.0 0.00 0.00 0.00 58 1006.1
20260506174016 72 0 8.0 19.0 0.00 0.00 0.00 58 1006.2
20260506173516 72 0 8.0 16.0 0.00 0.00 0.00 59 1006.2
20260506173016 72 0 8.0 19.0 0.00 0.00 0.00 59 1006.3
20260506172516 72 0 8.0 17.0 0.00 0.00 0.00 59 1006.3
20260506172016 72 0 8.0 23.0 0.00 0.00 0.00 59 1006.3
20260506171516 72 0 8.0 24.0 0.00 0.00 0.00 58 1006.2
20260506171016 72 0 6.0 14.0 0.00 0.00 0.00 59 1006.1
20260506170516 72 0 6.0 14.0 0.00 0.00 0.00 59 1006.3
20260506170016 72 0 8.0 22.0 0.00 0.00 0.00 59 1006.3